Flag for China Weather past 2 weeks in Lanzhou, Gansu, China

Now
19 °F

Clear.


Feels Like: 14 °F
Forecast: 5 / 36 °F
Wind: 3 mph from Northwest

Location: Lanzhou / Zhongchuan

Current Time: Dec 29, 2014 at 9:12:35 PM

Latest Report: Dec 29, 2014 at 8:00 PM


Visibility: 3 mi

Pressure: 30.09 "Hg

Humidity: 38%

Dew point: -2 °F

Location of LanzhouLocation

Historic Weather in Lanzhou — Graph

°F

Lanzhou temperature yesterday

Maximum temperature yesterday: 41 °F (at 3:00 PM)
Minimum temperature yesterday: 5 °F (at 6:00 AM)
Average temperature yesterday: 19 °F

Past Weeks' High & Low Weather Summary

 TemperatureHumidityPressure
High41 °F (Dec 28, 3:00 PM)85% (Dec 28, 6:00 AM)30.60 "Hg (Dec 28, 6:00 AM)
Low-4 °F (Dec 21, 8:00 AM)14% (Dec 29, 4:00 PM)30.01 "Hg (Dec 22, 2:00 PM)
Average16 °F53%30.27 "Hg
* Reported Dec 14 7:00 PM — Dec 29 7:00 PM, Lanzhou, Weather by CustomWeather, © 2014

Note: Actual official high and low records may vary slightly from our data, if they occured in-between our weather recording intervals... More about our weather records

Advertising

Lanzhou weather history for previous 24 hours

 ConditionsComfort  
Time TempWeatherWind HumidityBarometerVisibility
7:00 PM
Dec 29
21 °FClear.3 mph35%30.07 "Hg2 mi
6:00 PM34 °FSunny.1 mph19%30.01 "Hg10 mi
5:00 PM41 °FSunny.No wind14%30.01 "Hg10 mi
4:00 PM41 °FPassing clouds.3 mph14%30.01 "HgN/A
3:00 PM39 °FSunny.1 mph17%30.01 "Hg10 mi
2:00 PM39 °FSunny.3 mph18%30.01 "Hg10 mi
1:00 PM36 °FPassing clouds.3 mph21%30.07 "HgN/A
12:00 PM32 °FClear.3 mph27%30.09 "Hg4 mi
11:00 AM27 °FClear.1 mph33%30.12 "Hg4 mi
10:00 AM21 °FSunny.3 mph38%30.12 "Hg10 mi
9:00 AM12 °FClear.3 mph52%30.12 "Hg10 mi
8:00 AM10 °FClear.6 mph52%30.12 "Hg10 mi
7:00 AM9 °FClear.8 mph56%30.09 "Hg10 mi
6:00 AM12 °FClear.6 mph52%30.09 "Hg10 mi
5:00 AM12 °FClear.8 mph52%30.09 "Hg10 mi
4:00 AM14 °FClear.8 mph48%30.12 "Hg10 mi
3:00 AM14 °FClear.8 mph52%30.12 "Hg10 mi
2:00 AM16 °FClear.10 mph53%30.15 "Hg10 mi
1:00 AM16 °FClear.10 mph53%30.15 "Hg4 mi
12:00 AM18 °FClear.8 mph49%30.18 "Hg4 mi
11:00 PM
Dec 28
18 °FClear.8 mph49%30.18 "Hg4 mi
10:00 PM19 °FClear.8 mph49%30.18 "Hg3 mi
9:00 PM16 °FClear.8 mph53%30.21 "Hg2 mi
Weather by CustomWeather, © 2014

See weather overviewHow to use our weather pages